星链-6213 (STARLINK-6213 )

导读 | 星芒AI

STARLINK-6213 是 SpaceX Starlink 卫星互联网项目中的一颗低轨通信卫星。该卫星属于 Starlink 群体部署计划的一部分,旨在为全球用户提供高速互联网服务。它运行在约 550 公里的近地轨道上,采用先进的推进系统和激光通信技术,以提高网络效率和减少延迟。STARLINK-6213 的发射和运行有助于扩大 Starlink 在偏远和网络基础设施薄弱地区的覆盖范围,提升全球互联网接入的普及性和稳定性。

基本信息
目录编号:
56891
目录名称:
STARLINK-6213
国际标识:
2023-083R
轨道中心:
EARTH
卫星名称:
星链-6213
卫星全名:
星链-6213 (STARLINK-6213 )
卫星状态:
在轨 (已飞行923 天)
发射日期:
2023-06-12 UTC
国别 :
美国 (US)
星等 :
--
轨道信息
数据来源 国际轨道数据 AOE轨道数据
星历时间 2025-12-21T19:06:35+0800
8小时前
查看轨道信息
2025-12-15T13:00:00+0800
6天前
查看轨道信息
半长轴 6937.245km 6937.222km
偏心率 0.0001149 0.0001082
轨道倾角 43.002° 43.004°
近地点辐角 259.367° 277.612°
升交点赤经 146.786° 180.776°
平近点角 100.705° 51.944°
近地点 558.31km 558.336km
远地点 559.906km 559.838km
周期 95.839分钟 95.838分钟
每日圈数 15.025268 15.025345
详细信息
固有亮度:
5
最大亮度:
2.4
卫星平台:
Starlink v1.5
覆盖范围:
全球
运营商:
太空探索技术公司
运营商所在国:
美国
制造商(研发单位):
太空探索技术公司
制造商所在国:
美国
使用方式:
暂无
卫星简介
星链(Starlink)计划是由太空探索技术公司(SpaceX)提出的一个巨型低轨卫星互联网星座项目,计划在2019年至2024年间在太空搭建由约1.2万颗卫星组成的“星链”网络,其中1584颗将部署在地球上空550千米处的近地轨道,并从2020年开始工作。该卫星仍在工作。
2D轨道图
3D轨道图
轨道高度分析图
轨道倾角分析图
轨道综合分析图
查看轨道综合分析图